SQ3VAS-10 Weather Reports


time (UTC)temp
C
wind
direction
speed
KPH
gust
KPH
rain 1hr
cm
rain 24hr
cm
rain mn
cm
humidity
%
barometer
mb
20260504192357 17 0.0 0.0 0.00 0.00 0.00 64 1012.9
20260504191426 18 0.0 0.0 0.00 0.00 0.00 64 1012.9
20260504190454 18 0.0 0.0 0.00 0.00 0.00 62 1012.8
20260504185522 18 0.0 0.0 0.00 0.00 0.00 61 1012.7
20260504183620 19 0.0 0.0 0.00 0.00 0.00 60 1012.4
20260504182648 20 0.0 0.0 0.00 0.00 0.00 58 1012.4
20260504181716 20 0.0 0.0 0.00 0.00 0.00 57 1012.2
20260504180745 21 0.0 0.0 0.00 0.00 0.00 55 1012.1
20260504175813 21 0.0 0.0 0.00 0.00 0.00 53 1012.0
20260504174841 21 0.0 0.0 0.00 0.00 0.00 52 1011.8
20260504173908 22 0.0 0.0 0.00 0.00 0.00 52 1011.7
20260504172936 22 0.0 0.0 0.00 0.00 0.00 49 1011.6
20260504172004 23 0.0 0.0 0.00 0.00 0.00 46 1011.3
20260504171030 23 0.0 0.0 0.00 0.00 0.00 46 1011.5
20260504160341 22 0.0 0.0 0.00 0.00 0.00 46 1011.6
20260504150627 25 0.0 0.0 0.00 0.00 0.00 39 1011.5
20260504140908 25 0.0 0.0 0.00 0.00 0.00 41 1011.6
20260504130219 25 0.0 0.0 0.00 0.00 0.00 43 1011.7
20260504081548 20 0.0 0.0 0.00 0.00 0.00 58 1012.1
20260504080616 20 0.0 0.0 0.00 0.00 0.00 57 1012.1
20260504060206 18 0.0 0.0 0.00 0.00 0.00 62 1011.5
20260504050451 18 0.0 0.0 0.00 0.00 0.00 55 1011.3
20260504045517 18 0.0 0.0 0.00 0.00 0.00 55 1011.2
20260504044544 17 0.0 0.0 0.00 0.00 0.00 56 1011.2
20260504043612 17 0.0 0.0 0.00 0.00 0.00 56 1011.2
20260504042639 17 0.0 0.0 0.00 0.00 0.00 60 1011.0
20260504041706 17 0.0 0.0 0.00 0.00 0.00 56 1011.0
20260504040734 17 0.0 0.0 0.00 0.00 0.00 58 1011.1
20260504035800 17 0.0 0.0 0.00 0.00 0.00 58 1011.1
20260504034827 17 0.0 0.0 0.00 0.00 0.00 62 1011.1
20260504033856 16 0.0 0.0 0.00 0.00 0.00 62 1011.1
20260504032919 16 0.0 0.0 0.00 0.00 0.00 63 1011.0
20260504031946 16 0.0 0.0 0.00 0.00 0.00 62 1010.9
20260504031013 16 0.0 0.0 0.00 0.00 0.00 59 1010.7
20260504025106 16 0.0 0.0 0.00 0.00 0.00 56 1010.7
20260504024133 16 0.0 0.0 0.00 0.00 0.00 61 1010.6
20260504023201 16 0.0 0.0 0.00 0.00 0.00 63 1010.6
20260504022229 16 0.0 0.0 0.00 0.00 0.00 61 1010.5
20260504021257 16 0.0 0.0 0.00 0.00 0.00 62 1010.5
20260504020325 16 0.0 0.0 0.00 0.00 0.00 64 1010.5
20260504015353 16 0.0 0.0 0.00 0.00 0.00 63 1010.4
20260504014422 17 0.0 0.0 0.00 0.00 0.00 61 1010.4
20260504013452 17 0.0 0.0 0.00 0.00 0.00 61 1010.3
20260504012517 17 0.0 0.0 0.00 0.00 0.00 58 1010.3
20260504011545 17 0.0 0.0 0.00 0.00 0.00 55 1010.3
20260504010612 17 0.0 0.0 0.00 0.00 0.00 54 1010.3
20260504005639 17 0.0 0.0 0.00 0.00 0.00 57 1010.3
20260504004707 17 0.0 0.0 0.00 0.00 0.00 55 1010.2
20260504003733 17 0.0 0.0 0.00 0.00 0.00 56 1010.3
20260504002800 16 0.0 0.0 0.00 0.00 0.00 58 1010.4
20260504001828 16 0.0 0.0 0.00 0.00 0.00 60 1010.5
20260504000855 16 0.0 0.0 0.00 0.00 0.00 58 1010.4
20260503235923 16 0.0 0.0 0.00 0.00 0.00 63 1010.4
20260503234950 16 0.0 0.0 0.00 0.00 0.00 62 1010.3
20260503234018 16 0.0 0.0 0.00 0.00 0.00 62 1010.2
20260503233046 16 0.0 0.0 0.00 0.00 0.00 60 1010.2
20260503232114 16 0.0 0.0 0.00 0.00 0.00 62 1010.2
20260503231141 16 0.0 0.0 0.00 0.00 0.00 63 1010.1
20260503230210 15 0.0 0.0 0.00 0.00 0.00 64 1010.0
20260503225236 15 0.0 0.0 0.00 0.00 0.00 64 1010.0
20260503224305 16 0.0 0.0 0.00 0.00 0.00 64 1010.0
20260503223333 16 0.0 0.0 0.00 0.00 0.00 63 1010.0
20260503222402 16 0.0 0.0 0.00 0.00 0.00 61 1010.0
20260503221428 16 0.0 0.0 0.00 0.00 0.00 60 1010.1
20260503220456 17 0.0 0.0 0.00 0.00 0.00 59 1010.0
20260503215524 16 0.0 0.0 0.00 0.00 0.00 60 1010.2
20260503214552 17 0.0 0.0 0.00 0.00 0.00 58 1010.2
20260503213619 17 0.0 0.0 0.00 0.00 0.00 58 1010.4
20260503212647 17 0.0 0.0 0.00 0.00 0.00 58 1010.2
20260503211715 17 0.0 0.0 0.00 0.00 0.00 56 1010.1
20260503210742 17 0.0 0.0 0.00 0.00 0.00 57 1010.2
20260503205811 18 0.0 0.0 0.00 0.00 0.00 56 1010.1
20260503204839 18 0.0 0.0 0.00 0.00 0.00 55 1010.3
20260503203907 18 0.0 0.0 0.00 0.00 0.00 53 1010.1
20260503202934 19 0.0 0.0 0.00 0.00 0.00 53 1010.0
20260503202002 19 0.0 0.0 0.00 0.00 0.00 52 1010.1
20260503201031 20 0.0 0.0 0.00 0.00 0.00 51 1010.1
20260503200058 20 0.0 0.0 0.00 0.00 0.00 49 1010.3
20260503195126 20 0.0 0.0 0.00 0.00 0.00 49 1010.2
20260503194155 20 0.0 0.0 0.00 0.00 0.00 49 1010.3
20260503193223 21 0.0 0.0 0.00 0.00 0.00 44 1010.2